User: anonymous   Login
Location: Vancouver
(49.2500°N, 123.1330°W)
Time: 18:51:27
(UTC-08:00)
Language:

Cosmos 2333 Rocket - Orbit

View from above orbital plane
View from above orbital plane
View from above satellite
View from above satellite

Ground track
Ground track

The orbit data is extracted from the following two-line orbital elements,

1 24298U 96051B   17345.76245638 -.00000153  00000-0 -56157-4 0  9996
2 24298  70.8467  47.8759 0018545 274.5939  85.3063 14.12478770 96899
Epoch (UTC): 11 December 2017 18:17:56
Eccentricity: 0.0018545
inclination: 70.8467°
perigee height: 837 km
apogee height: 864 km
right ascension of ascending node: 47.8759°
argument of perigee: 274.5939°
revolutions per day: 14.12478770
mean anomaly at epoch: 85.3063°
orbit number at epoch: 9689

The dashed part of the orbit path shows where the satellite is in the earth's shadow,  

DLR